Location: Buckeye Ditch
(40.9104°N, 122.9517°W)
Time: 14:25:31
(UTC+00:00)

A-11 Canister half - Pass Details

Date: 18 May 2025
Orbit: 1515 x 1684 km, 47.2° (Epoch: 14 June)

Event Time Altitude Azimuth Distance (km) Brightness Sun altitude
Exits shadow 10:40:43 - 273° (W) 4,666 11.2 -19.9°
Reaches altitude 10° 10:43:44 10° 277° (W) 3,715 10.7 -19.5°
Maximum altitude 10:52:56 59° 357° (N) 1,714 9.4 -18.4°
Drops below altitude 10° 11:02:03 10° 76° (ENE) 3,678 11.8 -17.2°
Sets 11:05:10 0° 80° (E) 4,666 12.4 -16.8°
